Regional Weather Roundup
Issued by NWS Portland, ME

Home | Current Version | Previous Version | Text Only | Print | Product List | Glossary On
Versions: 1 2 3 4 5 6 7 8 9 10 11 12 13 14 15 16 17 18 19 20 21 22 23 24 25 26 27 28 29 30 31 32 33 34 35 36 37 38 39 40 41 42 43 44 45 46 47 48 49 50
544
ASUS41 KGYX 041710
RWRGYX
WEATHER ROUNDUP FOR MAINE AND NEW HAMPSHIRE
NATIONAL WEATHER SERVICE GRAY ME
1200 PM EST SUN DEC 04 2016

MEZ002-005-006-010-012-015-018-020-021-024-026-027-029-041800-
MAINE

CITY           SKY/WX    TMP DP  RH WIND       PRES   REMARKS
PORTLAND       MOSUNNY   39  20  46 NW14      30.13F
SANFORD        SUNNY     39  19  44 NW9       30.14F
BAR HARBOR     CLOUDY    34  20  56 NW10G16   30.09S
WISCASSET      MOSUNNY   39  20  46 VRB7      30.13S
ROCKLAND       CLOUDY    35  22  58 N10G16    30.10S
FRYEBURG       SUNNY     37  18  46 NW6       30.13F
LEWISTONAUBURN SUNNY     36  19  50 NW14G20   30.12F
AUGUSTA        PTSUNNY   36  19  50 NW8       30.11F
WATERVILLE     SUNNY     35  19  52 N10       30.08F
BANGOR         PTSUNNY   31  20  63 W9        30.10S
GREENVILLE       N/A     23  17  78 NW12G23   30.03S WCI  12
MILLINOCKET    PTSUNNY   29  18  63 W9G17     30.09S
HOULTON        CLOUDY    26  21  81 NW14G21   30.05R WCI  14
PRESQUE ISLE   CLOUDY    26  19  74 NW17      30.08S WCI  13
FRENCHVILLE    CLOUDY    21  14  74 NW16      30.05R WCI   7
CARIBOU        CLOUDY    25  18  74 NW14      30.05F WCI  13
$$

NHZ002-005-008-009-011-012-014-041800-
NEW HAMPSHIRE

CITY           SKY/WX    TMP DP  RH WIND       PRES   REMARKS
PORTSMOUTH     MOSUNNY   40  18  41 NW13      30.13F
ROCHESTER      SUNNY     38  17  42 NW14      30.13F
NASHUA         SUNNY     38  19  46 NW13      30.17F
MANCHESTER     MOSUNNY   38  17  42 NW9       30.15F
CONCORD        SUNNY     39  18  42 NW13      30.16F
PLYMOUTH         N/A     34  22  63 NW14      30.18F
BERLIN         CLOUDY    30  17  58 W9G17     30.14S
WHITEFIELD     CLOUDY    29  18  63 W7        30.17S
JAFFREY        SUNNY     35  17  47 N9        30.15S
KEENE          PTSUNNY   34  20  56 NW9       30.18F
LEBANON        CLOUDY    35  22  58 N8        30.19F
MT WASHINGTON  PTSUNNY    9   3  78 NW49G56     N/A  WCI -19
$$

VTZ005-007-008-041800-
VERMONT

CITY           SKY/WX    TMP DP  RH WIND       PRES   REMARKS
ST JOHNSBURY     N/A     32  20  61 MISG      30.18F
MONTPELIER     CLOUDY    28  21  75 NW9       30.22S
BURLINGTON     CLOUDY    33  22  63 NW8       30.25F
$$

MAZ007-012-024-CTZ003-RIZ002-NYZ038-NYZ072-041800-
SOUTHERN NEW ENGLAND AND NY

CITY           SKY/WX    TMP DP  RH WIND       PRES   REMARKS
BOSTON         MOSUNNY   39  21  48 NW9       30.17S
WORCESTER      SUNNY     34  18  52 NW10G20   30.14S
NANTUCKET      MOSUNNY   40  25  55 N21       30.14S
PROVIDENCE     MOSUNNY   40  21  46 NW13      30.18F
HARTFORD       MOSUNNY   40  19  43 N9        30.19F
ALBANY         CLOUDY    34  20  56 NW9       30.26F
NEW YORK CITY  MOSUNNY   45  23  42 N9G18     30.21F
$$

ANZ081-ANZ082-ANZ150-NHZ014-MEZ023>029-041800-
COASTAL MARINE OBSERVATIONS

STATION/POSITION TIME  TEMP    WIND        PRES    WAVE
                       AIR SEA DIR/SP/G            HT/PER
                 (UTC) (F)     (DEG/KT/KT) (MB)    (FT/S)
MOUNT DESERT ROC 1700   33                 1018.6R
MATINICUS ROCK   1600   33     330/ 18/ 22 1018.9F
ISLE OF SHOALS   1600   36     310/ 12/ 14 1020.7F
JEFFREYS LEDGE   1608      51                N/A     4/ 5
CASHES LEDGE BUO 1650   36 50  310/ 16/ 19 1019.2F   4/ 5
GEORGES BANK BUO 1550   44 51              1015.0   10/ 9
$$

.............KEY..............
   WCI - WIND CHILL
   TC  - TEMPERATURE IN CELSIUS
   VSB - VISIBILITY IN MILES
   HX  - HEAT INDEX
   FAIR- INDICATES FEW OR NO CLOUDS BELOW 12,000 FT, WITH NO
         SIGNIFICANT WEATHER AND/OR OBSTRUCTIONS TO VISIBILITY.






USA.gov is the U.S. government's official web portal to all federal, state and local government web resources and services.